COSMOS 1320

导读 | 豆包AI

COSMOS 1320是苏联(归属独联体CIS)于1981年11月28日发射的“宇宙”系列卫星,该系列是冷战时期苏联规模最大的卫星项目,涵盖军事侦察、空间科学试验等多种任务。作为苏联航天计划的组成部分,这颗卫星体现了当时苏联在近地轨道空间的技术探索能力,服务于其战略航天布局,支撑了冷战背景下苏联空间能力建设。

Basic Information
目录编号:
12975
目录名称:
COSMOS 1320
国际标识:
1981-116A
轨道中心:
EARTH
卫星名称:
COSMOS 1320
卫星全名:
--
卫星状态:
在轨 (已飞行16175 天)
发射日期:
1981-11-28 UTC
国别 :
俄罗斯(独联体) (CIS)
星等 :
--
Orbit Information
数据来源 国际轨道数据
星历时间: 2026-03-12T08:13:19+0800
11小时前
查看轨道信息
半长轴: 7935.832km
偏心率: 0.0096157
轨道倾角: 73.984°
近地点辐角 55.837°
升交点赤经 184.427°
平近点角 62.959°
近地点: 1481.386km
远地点: 1634.004km
周期: 117.260分钟
每日圈数: 12.280444
Detailed Information
使用方式:
暂无
2D Orbit Map
3D Orbit Map
Orbit Altitude Analysis Chart
Orbit Inclination Analysis Chart
Orbit Comprehensive Analysis Chart
View Comprehensive Chart